Location: Poughquag
(41.6090°N, 73.6820°W)
Time: 03:18:44
(UTC-04:00)

Transit 2A - Pass Details

Date: 30 May 2020
Orbit: 592 x 967 km, 66.7° (Epoch: 06 July)

Event Time Altitude Azimuth Distance (km) Brightness Sun altitude
Rises 20:33:10 0° 340° (NNW) 3,483 10.4 -2.7°
Reaches altitude 10° 20:37:57 10° 14° (NNE) 2,624 9.0 -3.4°
Maximum altitude 20:39:42 11° 31° (NNE) 2,562 8.8 -3.7°
Drops below altitude 10° 20:41:28 10° 47° (NE) 2,666 8.7 -4.0°
Sets 20:46:28 0° 81° (E) 3,647 9.1 -4.7°
